Погода в Барра-Манса

Бразилия     22°33′08″S   44°09′41″W
темп.,
°C
ветер,
м/с
пор.,
м/с
влажн.,
%
обл.,
%
осадки,
мм/ч
давл.,
гПа
погр.,
м
27 февраля, сб
сб2700:00+19ююз0199100 3.0 101669
03:00+19в1199100 4.1 101489
06:00+19в1199100 1.1 101558
09:00+20ю1197100 1.5 1016131
12:00+23зюз0188100 0.8 1016259
15:00+23ююв2390100 5.8 1014245
18:00+22ю0191100 1.1 101424
21:00+20ю0195100 1.1 101523
28 февраля, вс
вс2800:00+19зюз1196100 0.0 101523
03:00+18св0097100 0.0 101423
06:00+18з009796 0.0 101523
09:00+21всв119498 0.0 1016202
12:00+25всв2376100 0.7 1015658
15:00+26всв247898 4.3 1012914
18:00+22всв1291100 3.1 101236
21:00+20юв119496 3.6 101523
1 марта, пн
пн100:00+18ююз119662 0.0 101523
03:00+17в009760 0.0 101323
06:00+17св009712 0.0 101424
09:00+22ссв128736 0.0 1015449
12:00+27вюв127098 0.1 1014907
15:00+26в128092 5.6 1011333
18:00+23в229089 2.9 101244
21:00+20юв119468 3.4 101424
2 марта, вт
вт200:00+19ю019637 0.0 101423
03:00+18ссз009744 0.0 101323
06:00+18сз019795 0.0 101523
09:00+23с128684 0.0 1016392
12:00+29св136035 0.0 10151164
15:00+28в337167 0.3 1013874
18:00+23в2289100 0.9 101349
21:00+21ююз0193100 1.2 101523
3 марта, ср
ср300:00+19ссв119541 0.0 101623
03:00+18ссз019665 0.0 101523
06:00+17сз119696 0.0 101623
09:00+23ссз128280 0.0 1017342
12:00+28ю116363 0.0 1016701
15:00+29юв226440 0.8 10141151
18:00+22юв249253 3.1 1014109
21:00+20ссв119476 3.9 101723